[[{"header":{"parameterUnit":"m.s-1","parameterCategory":1,"la1":30.2991,"la2":30.254,"lo1":-89.0895,"lo2":-89.0444,"dy":0.0017,"dx":0.0017,"nx":28,"ny":28,"refTime":"2023-09-29T09:00:00:Z","depth":0,"parameterNumber":2,"parameterNumberName":"U-component_of_WINDS"},"data":[0,0,0,0,0,0,0,0,0,0,0,0,0,0,0,0,0,0,0,0,0,0,0,0,0,0,0,0,0,0,0,0,0,0,0,0,0,0,0,0,0,0,0,0,0,0,0,0,0,0,0,0,0,0,0,0,0,0,-3.6659,-3.6659,0,-3.6638,-3.6638,-3.6638,-3.6465,-3.646,-3.6456,-3.6452,-3.6433,-3.6436,-3.644,0,0,0,0,0,0,0,0,0,0,0,0,0,-3.6552,-3.6555,-3.6659,-3.6659,-3.6659,-3.6638,-3.6638,-3.6638,-3.6465,-3.646,-3.6455,-3.645,-3.6432,-3.6436,-3.644,0,0,0,0,0,0,0,0,0,0,0,0,0,-3.6572,-3.6556,-3.6659,-3.657,-3.6562,-3.6638,-3.6638,-3.6637,-3.6467,-3.646,-3.6454,-3.6448,-3.643,-3.6436,-3.6441,-3.6601,0,0,-3.6457,-3.6459,0,0,0,0,0,0,0,0,-3.6571,-3.6576,-3.6584,-3.6577,-3.6568,-3.6547,-3.6593,-3.6625,-3.6468,-3.6503,-3.6452,-3.6445,-3.6476,-3.6477,-3.6488,-3.66,-3.66,-3.6457,-3.646,-3.6462,-3.6464,0,0,0,0,0,0,0,-3.657,-3.6576,-3.6651,-3.6584,-3.6574,-3.6532,-3.6528,-3.6598,-3.6526,-3.6499,-3.6487,-3.6487,-3.6471,-3.6483,-3.6486,-3.6599,-3.6457,-3.6462,-3.6465,-3.6467,-3.6843,-3.6849,0,0,0,0,0,0,-3.6581,-3.6576,-3.6652,-3.665,-3.6554,-3.6539,-3.6534,-3.656,-3.6525,-3.6513,-3.6492,-3.6479,-3.6477,-3.648,-3.6485,-3.6671,-3.6462,-3.6467,-3.647,-3.6836,-3.6844,-3.6852,0,0,0,0,0,0,-3.6579,-3.6589,-3.6652,-3.661,-3.6615,-3.6548,-3.6579,-3.6563,-3.6575,-3.6519,-3.6506,-3.6518,-3.6472,-3.6477,-3.6573,-3.6668,-3.647,-3.6474,-3.6828,-3.6839,-3.6848,-3.7045,0,0,0,0,0,0,-3.6577,-3.659,-3.665,-3.6612,-3.6618,-3.6742,-3.6584,-3.6568,-3.6585,-3.6567,-3.654,-3.6529,-3.6468,-3.6567,-3.6579,-3.6671,-3.6478,-3.6819,-3.6833,-3.6845,-3.7029,-3.706,-3.7087,0,0,0,0,0,-3.6574,-3.6706,-3.6654,-3.6664,-3.6691,-3.6748,-3.675,-3.6676,-3.6593,-3.6653,-3.6617,-3.653,-3.6655,-3.6578,-3.659,-3.6686,-3.6813,-3.6829,-3.6844,-3.7017,-3.7054,-3.7086,0,0,0,0,0,0,-3.6757,-3.67,-3.6641,-3.6765,-3.6763,-3.6718,-3.6792,-3.6719,-3.674,-3.6723,-3.6631,-3.6626,-3.6737,-3.672,-3.6635,-3.6839,-3.6719,-3.6738,-3.6846,-3.6882,-3.691,-3.6912,-3.6483,0,0,0,0,0,-3.6812,-3.6862,-3.6809,-3.6924,-3.6926,-3.686,-3.6881,-3.6824,-3.6818,-3.6817,-3.6787,-3.6785,-3.6824,-3.6851,-3.6884,-3.7026,-3.7018,-3.7097,-3.7126,-3.715,-3.7168,-3.7242,-3.7277,-3.6903,-3.6902,-3.6902,0,0,-3.6926,-3.6901,-3.6938,-3.696,-3.6951,-3.7006,-3.686,-3.6924,-3.6963,-3.6826,-3.6915,-3.6894,-3.6886,-3.7006,-3.7057,-3.6996,-3.7269,-3.717,-3.7189,-3.7194,-3.7262,-3.7297,-3.7329,-3.6913,-3.6911,-3.691,0,0,-3.7162,-3.7148,-3.7242,-3.7236,-3.7224,-3.7179,-3.7202,-3.7169,-3.7149,-3.7237,-3.7135,-3.7182,-3.725,-3.7248,-3.7257,-3.7492,-3.7414,-3.7505,-3.7656,-3.7729,-3.7759,-3.7785,-3.787,-3.7901,-3.7523,-3.7523,-3.7523,0,-3.7306,-3.7383,-3.73,-3.7371,-3.7384,-3.7261,-3.7356,-3.7355,-3.7355,-3.7367,-3.7298,-3.7381,-3.7367,-3.7485,-3.7543,-3.7553,-3.7577,-3.7509,-3.7761,-3.7786,-3.7809,-3.7889,-3.7921,-3.7534,-3.7533,-3.7532,-3.7531,0,-3.7561,-3.7616,-3.7694,-3.7696,-3.7718,-3.7801,-3.7731,-3.7763,-3.7704,-3.7667,-3.7758,-3.7736,-3.7763,-3.7786,-3.7729,-3.7897,-3.7859,-3.7777,-3.7655,-3.7857,-3.7931,-3.7961,-3.7551,-3.7547,-3.7543,-3.754,0,0,-3.7913,-3.7868,-3.7898,-3.7898,-3.7876,-3.7917,-3.7995,-3.8019,-3.8049,-3.8053,-3.8117,-3.8177,-3.8101,-3.8111,-3.8053,-3.8117,-3.8307,-3.8027,-3.8025,-3.8081,-3.8491,-3.8554,-3.8591,-3.8253,-3.8259,-3.8263,-3.8492,0,-3.8141,-3.827,-3.8197,-3.8337,-3.8388,-3.8271,-3.8339,-3.8333,-3.83,-3.8339,-3.8302,-3.8347,-3.8243,-3.8248,-3.8307,-3.8271,-3.8388,-3.8253,-3.8313,-3.8316,-3.832,-3.8629,-3.8696,-3.8913,-3.852,-3.8525,-3.8528,0,-3.8424,-3.844,-3.8585,-3.8553,-3.8571,-3.8634,-3.865,-3.8688,-3.868,-3.8651,-3.8662,-3.8589,-3.8663,-3.8541,-3.8643,-3.8553,-3.8573,-3.856,-3.8566,-3.857,-3.8436,-3.8643,-3.898,-3.9013,-3.8573,-3.8569,-3.8566,0,-3.8668,-3.8725,-3.8819,-3.8823,-3.8788,-3.8834,-3.8822,-3.8807,-3.8826,-3.8841,-3.8853,-3.8878,-3.8891,-3.8912,-3.8847,-3.8764,-3.8958,-3.8831,-3.8938,-3.894,-3.8985,-3.8984,-3.9332,-3.8996,-3.8996,-3.8995,-3.8995,0,-3.8931,-3.9025,-3.8928,-3.8987,-3.9088,-3.9004,-3.9107,-3.9082,-3.907,-3.9122,-3.9022,-3.9073,-3.8984,-3.9026,-3.8976,-3.9069,-3.9075,-3.9055,-3.9041,-3.9065,-3.9068,-3.9078,-3.9062,-3.9004,-3.9002,-3.9,-3.8999,0,-3.9221,-3.916,-3.9256,-3.9214,-3.9206,-3.9283,-3.9248,-3.9301,-3.9261,-3.9328,-3.9339,-3.9277,-3.9321,-3.9258,-3.9296,-3.9262,-3.939,-3.9352,-3.9394,-3.9383,-3.9495,-3.9486,-3.9863,-3.9908,-3.9543,-3.9546,-3.9549,0,-3.9394,-3.9463,-3.9429,-3.9456,-3.945,-3.9495,-3.9514,-3.9434,-3.9458,-3.9453,-3.9507,-3.9543,-3.9568,-3.9645,-3.9604,-3.9633,-3.9596,-3.9726,-3.9599,-3.9622,-3.9599,-3.9597,-3.9604,-3.9752,-3.9757,-3.976,-3.9763,0,-3.9707,-3.9673,-3.9704,-3.9726,-3.9752,-3.9765,-3.9771,-3.9799,-3.9714,-3.9747,-3.9791,-3.981,-3.9849,-3.9887,-3.9905,-3.9892,-3.9816,-3.9803,-3.983,-3.9856,-3.9877,-3.9869,-3.9466,-3.9795,-3.9792,-3.979,-3.9788,-3.9787,-3.9944,-4.0,-3.9985,-4.0024,-4.0019,-4.0027,-4.0075,-4.004,-4.0075,-4.01,-4.005,-4.0107,-4.0097,-4.0113,-4.011,-4.0154,-4.0097,-4.0135,-4.0145,-4.0156,-4.0174,-3.9869,-4.0156,-4.0155,-4.0154,-4.0154,-4.0153,0,-4.0253,-4.0237,-4.0273,-4.0284,-4.0315,-4.0238,-4.024,-4.0271,-4.0322,-4.0319,-4.0345,-4.0396,-4.0432,-4.0394,-4.0423,-4.0465,-4.0431,-4.0476,-4.0473,-4.0471,-4.0222,-4.0197,-4.0503,-4.0503,-4.0503,-4.0503,-4.0503,-4.0503,-4.0417,-4.0509,-4.0474,-4.0562,-4.0546,-4.06,-4.0609,-4.0616,-4.0612,-4.0674,-4.0703,-4.0677,-4.066,-4.0686,-4.0717,-4.0704,-4.072,-4.0779,-4.0755,-4.0523,-4.0489,-4.0456,-4.0432,-4.0782,-4.0783,-4.0999,-4.1002,-4.1003]},{"header":{"parameterUnit":"m.s-1","parameterCategory":1,"la1":30.2991,"la2":30.254,"lo1":-89.0895,"lo2":-89.0444,"dy":0.0017,"dx":0.0017,"nx":28,"ny":28,"refTime":"2023-09-29T09:00:00:Z","depth":0,"parameterNumber":3,"parameterNumberName":"V-component_of_WINDS"},"data":[0,0,0,0,0,0,0,0,0,0,0,0,0,0,0,0,0,0,0,0,0,0,0,0,0,0,0,0,0,0,0,0,0,0,0,0,0,0,0,0,0,0,0,0,0,0,0,0,0,0,0,0,0,0,0,0,0,0,-3.4366,-3.4367,0,-3.4418,-3.4418,-3.4419,-3.4405,-3.4404,-3.4403,-3.4402,-3.4452,-3.4454,-3.4456,0,0,0,0,0,0,0,0,0,0,0,0,0,-3.4252,-3.4254,-3.4366,-3.4367,-3.4367,-3.4418,-3.4418,-3.4419,-3.4406,-3.4404,-3.4403,-3.4402,-3.4451,-3.4454,-3.4457,0,0,0,0,0,0,0,0,0,0,0,0,0,-3.4302,-3.4254,-3.4366,-3.4367,-3.4368,-3.4417,-3.4418,-3.4419,-3.4406,-3.4404,-3.4403,-3.4401,-3.445,-3.4454,-3.4457,-3.4508,0,0,-3.4467,-3.4469,0,0,0,0,0,0,0,0,-3.4299,-3.4306,-3.4366,-3.4367,-3.4368,-3.4404,-3.4396,-3.4449,-3.4406,-3.4391,-3.4402,-3.4401,-3.4437,-3.4441,-3.4454,-3.451,-3.4513,-3.4468,-3.447,-3.4471,-3.4472,0,0,0,0,0,0,0,-3.4296,-3.4304,-3.4386,-3.4367,-3.4368,-3.4363,-3.4369,-3.4406,-3.4422,-3.4392,-3.4392,-3.4398,-3.4437,-3.4451,-3.4455,-3.4513,-3.4467,-3.447,-3.4473,-3.4474,-3.4611,-3.4613,0,0,0,0,0,0,-3.4292,-3.4301,-3.4385,-3.4388,-3.4329,-3.4366,-3.4373,-3.4394,-3.4421,-3.4424,-3.4399,-3.4397,-3.4446,-3.4451,-3.4457,-3.4517,-3.4471,-3.4474,-3.4476,-3.461,-3.4612,-3.4613,0,0,0,0,0,0,-3.429,-3.43,-3.4383,-3.4344,-3.4355,-3.437,-3.4394,-3.4395,-3.4409,-3.4427,-3.4429,-3.4411,-3.4445,-3.4452,-3.4495,-3.4518,-3.4476,-3.4479,-3.4608,-3.461,-3.4613,-3.4638,0,0,0,0,0,0,-3.4286,-3.4299,-3.432,-3.4345,-3.4357,-3.4422,-3.4395,-3.4397,-3.4416,-3.4413,-3.4438,-3.4441,-3.4444,-3.449,-3.4498,-3.4522,-3.4481,-3.4606,-3.4609,-3.4612,-3.4635,-3.4641,-3.4646,0,0,0,0,0,-3.4282,-3.4325,-3.4321,-3.4331,-3.4383,-3.4423,-3.443,-3.4434,-3.4418,-3.4438,-3.4448,-3.444,-3.4515,-3.4495,-3.4504,-3.4529,-3.4604,-3.4608,-3.4612,-3.4633,-3.464,-3.4646,0,0,0,0,0,0,-3.4301,-3.4328,-3.4324,-3.4376,-3.4398,-3.4421,-3.4446,-3.4442,-3.4467,-3.4464,-3.4467,-3.4472,-3.4516,-3.4527,-3.4504,-3.4579,-3.4557,-3.4563,-3.457,-3.4577,-3.4582,-3.4578,-3.4484,0,0,0,0,0,-3.4312,-3.4343,-3.4364,-3.4408,-3.4419,-3.4431,-3.4448,-3.445,-3.4471,-3.448,-3.4494,-3.4514,-3.4542,-3.456,-3.4587,-3.4637,-3.4641,-3.4659,-3.4664,-3.4669,-3.4673,-3.4698,-3.4705,-3.4625,-3.4625,-3.4625,0,0,-3.4333,-3.4352,-3.4371,-3.4412,-3.4429,-3.446,-3.4439,-3.4472,-3.4494,-3.4485,-3.4526,-3.4537,-3.4559,-3.4606,-3.4627,-3.4616,-3.4696,-3.4673,-3.4677,-3.4679,-3.4702,-3.471,-3.4717,-3.4628,-3.4627,-3.4627,0,0,-3.4388,-3.4406,-3.4443,-3.446,-3.4486,-3.4493,-3.4502,-3.4526,-3.4533,-3.4574,-3.4567,-3.4593,-3.4641,-3.4657,-3.4671,-3.473,-3.4722,-3.4738,-3.4766,-3.4791,-3.4797,-3.4803,-3.4821,-3.4828,-3.4743,-3.4743,-3.4743,0,-3.4411,-3.4458,-3.4463,-3.4497,-3.4514,-3.4507,-3.4544,-3.456,-3.4592,-3.4604,-3.4592,-3.4651,-3.4666,-3.4715,-3.4729,-3.4741,-3.475,-3.4735,-3.4796,-3.4802,-3.4807,-3.4825,-3.4832,-3.4745,-3.4745,-3.4744,-3.4744,0,-3.4484,-3.4517,-3.4544,-3.4576,-3.4596,-3.4631,-3.464,-3.4659,-3.4658,-3.4666,-3.4707,-3.4725,-3.4754,-3.4766,-3.4765,-3.4814,-3.4806,-3.4795,-3.4773,-3.4816,-3.4833,-3.484,-3.4747,-3.4747,-3.4746,-3.4746,0,0,-3.4553,-3.4586,-3.4595,-3.4609,-3.4636,-3.466,-3.4694,-3.4723,-3.4739,-3.4761,-3.4788,-3.4829,-3.4818,-3.4834,-3.4835,-3.4857,-3.4899,-3.4843,-3.4843,-3.4851,-3.4951,-3.4958,-3.4966,-3.4895,-3.4896,-3.4897,-3.4949,0,-3.4608,-3.4669,-3.4673,-3.4727,-3.4756,-3.4749,-3.4778,-3.4797,-3.4805,-3.4829,-3.4837,-3.4865,-3.485,-3.486,-3.4881,-3.489,-3.4919,-3.4886,-3.4918,-3.4919,-3.4911,-3.4976,-3.4984,-3.5031,-3.4956,-3.4957,-3.4958,0,-3.4681,-3.4706,-3.4763,-3.4783,-3.4796,-3.4822,-3.4848,-3.4872,-3.4892,-3.4896,-3.4914,-3.4911,-3.4944,-3.4921,-3.4965,-3.4942,-3.4955,-3.4962,-3.4964,-3.4965,-3.494,-3.4977,-3.5047,-3.5053,-3.4968,-3.4967,-3.4967,0,-3.4722,-3.477,-3.481,-3.4822,-3.4847,-3.4866,-3.4877,-3.4896,-3.4912,-3.4934,-3.4945,-3.497,-3.4984,-3.5003,-3.5007,-3.499,-3.505,-3.5028,-3.5052,-3.5052,-3.5064,-3.5063,-3.5135,-3.5075,-3.5075,-3.5075,-3.5075,0,-3.4783,-3.4818,-3.4828,-3.4853,-3.489,-3.4894,-3.4931,-3.4941,-3.4957,-3.4982,-3.4978,-3.5001,-3.5005,-3.5028,-3.5031,-3.5066,-3.5072,-3.5075,-3.5075,-3.5075,-3.5074,-3.5082,-3.5078,-3.5077,-3.5077,-3.5076,-3.5076,0,-3.4836,-3.4845,-3.4887,-3.4908,-3.4914,-3.494,-3.4957,-3.4979,-3.4987,-3.5018,-3.5025,-3.5036,-3.5063,-3.5069,-3.5101,-3.5103,-3.5143,-3.5141,-3.5136,-3.5136,-3.5159,-3.5156,-3.5237,-3.5247,-3.5183,-3.5183,-3.5184,0,-3.4873,-3.49,-3.4923,-3.494,-3.4952,-3.4979,-3.4995,-3.5,-3.5017,-3.5041,-3.5059,-3.5086,-3.5108,-3.5151,-3.516,-3.5184,-3.5181,-3.5208,-3.5185,-3.5183,-3.518,-3.5177,-3.5179,-3.5212,-3.5213,-3.5214,-3.5214,0,-3.4938,-3.4941,-3.4966,-3.4991,-3.5011,-3.5032,-3.5051,-3.5065,-3.5071,-3.509,-3.5118,-3.5135,-3.5167,-3.5193,-3.5217,-3.5227,-3.5221,-3.5221,-3.5228,-3.5227,-3.5223,-3.5223,-3.5147,-3.5219,-3.5219,-3.5218,-3.5218,-3.5218,-3.4983,-3.5005,-3.5025,-3.5052,-3.5067,-3.5085,-3.5106,-3.5116,-3.5139,-3.5166,-3.5167,-3.5197,-3.5214,-3.5245,-3.5256,-3.5279,-3.527,-3.528,-3.5282,-3.5284,-3.5285,-3.522,-3.5283,-3.5283,-3.5283,-3.5283,-3.5283,0,-3.5046,-3.5058,-3.5083,-3.511,-3.5131,-3.5124,-3.5145,-3.5162,-3.5189,-3.5206,-3.5227,-3.5257,-3.5282,-3.5293,-3.5317,-3.5332,-3.533,-3.5338,-3.5336,-3.5338,-3.5293,-3.5284,-3.534,-3.534,-3.534,-3.534,-3.534,-3.534,-3.5081,-3.5118,-3.5122,-3.5165,-3.5177,-3.5206,-3.5218,-3.5234,-3.5247,-3.5282,-3.5303,-3.531,-3.5324,-3.5349,-3.537,-3.5373,-3.5381,-3.539,-3.5391,-3.5348,-3.5342,-3.5336,-3.5328,-3.5392,-3.5392,-3.5434,-3.5435,-3.5435]}]]